Weather History for LLBG - December, 2012

Change the Weather History Date:

Friday, December 21, 2012

  Actual Average Record
Temperature  
Mean Temperature 54 °F -  
Max Temperature 57 °F 62 °F 78 °F (1999)
Min Temperature 51 °F 48 °F 43 °F (2013)
Degree Days  
Heating Degree Days 11    
Growing Degree Days 4 (Base 50)    
Moisture  
Dew Point 50 °F    
Average Humidity 84    
Maximum Humidity 88    
Minimum Humidity 72    
Precipitation  
Precipitation 1.18 in - - ()
Sea Level Pressure  
Sea Level Pressure 29.90 in    
Wind  
Wind Speed 12 mph ()    
Max Wind Speed 24 mph    
Max Gust Speed 33 mph    
Visibility 5.3 miles    
Events Rain , Thunderstorm    
Averages and records for this station are not official NWS values.
T = Trace of Precipitation, MM = Missing Value Source: Averaged Metar Reports

Daily Weather History Graph

Daily Weather History Graph

Search for Another Location

Airport or City:

Trip Planner

Search our weather history database for the weather conditions in past years. The results will help you decide how hot, cold, wet, or windy it might be!

Date:

Astronomy

Dec. 21, 2012 Rise Set
Actual Time 6:37 AM IST 4:40 PM IST
Civil Twilight 6:10 AM IST 5:07 PM IST
Nautical Twilight 5:39 AM IST 5:37 PM IST
Astronomical Twilight 5:09 AM IST 6:07 PM IST
Moon 12:02 PM IST (12/21) 12:19 AM IST (12/21)
Length of Visible Light 10h 57m
Length of Day
10h 03m
First Quarter, 62% of the Moon is Illuminated
Dec 21
First Quarter
Dec 28
Full
Jan 5
Last Quarter
Jan 11
New
Jan 19
First Quarter

Hourly Weather History & Observations

Time (IST) Temp. Dew Point Humidity Pressure Visibility Wind Dir Wind Speed Gust Speed Precip Events Conditions
12:20 AM 53.6 °F 44.6 °F 72% 29.80 in 2.8 mi South 21.9 mph 33.4 mph N/A Rain Rain
12:30 AM 53.6 °F 44.6 °F 72% 29.80 in 5.0 mi WSW 12.7 mph 24.2 mph N/A Rain Light Rain
12:49 AM 53.6 °F 48.2 °F 82% 29.80 in 5.0 mi WSW 12.7 mph - N/A Rain Light Rain
12:50 AM 53.6 °F 48.2 °F 82% 29.80 in 5.0 mi WSW 12.7 mph - N/A Rain Light Rain
1:50 AM 55.4 °F 48.2 °F 77% 29.83 in 6.2 mi SSW 12.7 mph - N/A   Mostly Cloudy
2:00 AM 55 °F 49 °F 73% 29.83 in 6 mi SSW 12.7 mph - - Rain Light Rain
2:50 AM 53.6 °F 48.2 °F 82% 29.80 in 6.2 mi SSE 11.5 mph - N/A   Mostly Cloudy
3:50 AM 53.6 °F 48.2 °F 82% 29.80 in 6.2 mi South 13.8 mph - N/A   Mostly Cloudy
4:50 AM 53.6 °F 48.2 °F 82% 29.83 in 6.2 mi South 9.2 mph - N/A   Mostly Cloudy
5:50 AM 53.6 °F 48.2 °F 82% 29.86 in 6.2 mi SSE 15.0 mph - N/A   Mostly Cloudy
6:50 AM 51.8 °F 48.2 °F 88% 29.86 in 6.2 mi SSE 12.7 mph - N/A   Mostly Cloudy
7:23 AM 51.8 °F 48.2 °F 88% 29.89 in 4.3 mi South 24.2 mph - N/A   Mostly Cloudy
7:50 AM 51.8 °F 48.2 °F 88% 29.89 in 5.6 mi South 16.1 mph - N/A   Mostly Cloudy
8:00 AM 52 °F 48 °F 80% 29.90 in 6 mi South 16.1 mph - - Rain Light Rain
8:50 AM 53.6 °F 48.2 °F 82% 29.89 in 6.2 mi SSE 15.0 mph - N/A   Mostly Cloudy
9:15 AM 53.6 °F 48.2 °F 82% 29.89 in 5.6 mi South 18.4 mph - N/A Rain Rain
9:21 AM 53.6 °F 48.2 °F 82% 29.89 in 3.1 mi South 18.4 mph - N/A Rain , Thunderstorm Rain Showers
9:44 AM 51.8 °F 48.2 °F 88% 29.89 in 5.6 mi South 20.7 mph - N/A Rain Light Rain
9:50 AM 53.6 °F 48.2 °F 82% 29.89 in 6.2 mi South 18.4 mph - N/A   Scattered Clouds
10:20 AM 51.8 °F 48.2 °F 88% 29.89 in 3.7 mi South 15.0 mph - N/A Rain Rain
10:43 AM 53.6 °F 50.0 °F 88% 29.89 in 6.2 mi SSE 17.3 mph - N/A Rain Light Rain
10:50 AM 53.6 °F 50.0 °F 88% 29.89 in 6.2 mi SSE 15.0 mph - N/A Rain Light Rain
11:17 AM 53.6 °F 50.0 °F 88% 29.89 in 4.3 mi South 10.4 mph - N/A Rain Rain
11:30 AM 53.6 °F 50.0 °F 88% 29.89 in 6.2 mi SSE 11.5 mph - N/A Rain Light Rain
11:50 AM 55.4 °F 51.8 °F 88% 29.86 in 6.2 mi South 12.7 mph - N/A   Mostly Cloudy
12:15 PM 55.4 °F 51.8 °F 88% 29.89 in 4.3 mi SSW 16.1 mph - N/A Rain Rain
12:27 PM 55.4 °F 51.8 °F 88% 29.89 in 3.7 mi SSW 11.5 mph - N/A Rain , Thunderstorm Light Thunderstorms and Rain
12:37 PM 55.4 °F 51.8 °F 88% 29.89 in 3.1 mi South 10.4 mph - N/A Rain Rain Showers
12:48 PM 55.4 °F 51.8 °F 88% 29.89 in 1.9 mi SSE 8.1 mph - N/A Rain Rain Showers
12:50 PM 55.4 °F 51.8 °F 88% 29.89 in 1.9 mi SSE 8.1 mph - N/A Rain Rain Showers
1:05 PM 57.2 °F 51.8 °F 82% 29.89 in 3.7 mi South 9.2 mph - N/A Rain Rain
1:22 PM 57.2 °F 51.8 °F 82% 29.89 in 5.6 mi SSW 10.4 mph - N/A Rain Light Rain
1:50 PM 55.4 °F 50.0 °F 82% 29.89 in 5.0 mi SSW 10.4 mph - N/A Rain Light Rain
2:00 PM 55 °F 51 °F 80% 29.90 in 5 mi SSW 10.4 mph - - Rain Light Rain
2:50 PM 55.4 °F 51.8 °F 88% 29.89 in 6.2 mi SE 10.4 mph - N/A   Scattered Clouds
3:17 PM 55.4 °F 51.8 °F 88% 29.92 in 1.9 mi SSE 10.4 mph - N/A Rain Rain Showers
3:26 PM 55.4 °F 51.8 °F 88% 29.92 in 4.3 mi South 8.1 mph - N/A Rain Light Rain
3:50 PM 57.2 °F 51.8 °F 82% 29.92 in 6.2 mi SE 4.6 mph - N/A   Mostly Cloudy
4:50 PM 57.2 °F 51.8 °F 82% 29.92 in 6.2 mi SW 5.8 mph - N/A   Mostly Cloudy
5:47 PM 57.2 °F 50.0 °F 77% 29.95 in 5.6 mi SSE 9.2 mph - N/A Rain Rain
5:50 PM 57.2 °F 50.0 °F 77% 29.95 in 5.6 mi SSE 9.2 mph - N/A Rain Rain
6:06 PM 55.4 °F 51.8 °F 88% 29.95 in 6.2 mi South 4.6 mph - N/A   Mostly Cloudy
6:50 PM 55.4 °F 51.8 °F 88% 29.95 in 6.2 mi SE 8.1 mph - N/A   Mostly Cloudy
7:25 PM 55.4 °F 51.8 °F 88% 29.98 in 5.6 mi SSE 11.5 mph - N/A Rain Rain
7:39 PM 55.4 °F 51.8 °F 88% 29.98 in 6.2 mi South 9.2 mph - N/A Rain Light Rain
7:50 PM 55.4 °F 51.8 °F 88% 29.98 in 6.2 mi South 5.8 mph - N/A Rain Light Rain
8:00 PM 56 °F 52 °F 83% 29.98 in 6 mi South 5.8 mph - - Rain Light Rain
8:50 PM 55.4 °F 51.8 °F 88% 29.98 in 6.2 mi South 9.2 mph - N/A Rain Light Rain
9:50 PM 55.4 °F 51.8 °F 88% 29.98 in 6.2 mi SSE 10.4 mph - N/A Rain Light Rain
10:50 PM 55.4 °F 51.8 °F 88% 29.98 in 6.2 mi South 12.7 mph - N/A   Mostly Cloudy
11:50 PM 55.4 °F 51.8 °F 88% 29.98 in 6.2 mi South 10.4 mph - N/A   Mostly Cloudy